EHI
0 0 0 0 0 0 0 0 0 0 0 0 0 0 0 0 0 0 0 0 1 2 4 7 8 5 4 5 6 6 5 4 4 4 3 2 2 1 0 0 1 2 2 2 2 1 0 0 0
0 0 0 0 0 0 0 0 0 0 0 0 0 0 0 0 0 0 0 0 2 3 4 5 6 6 6 6 6 5 4 3 3 2 2 1 1 0 0 0 0 1 1 1 1 0 0 0 0
0 0 0 0 0 0 0 0 0 0 0 0 0 0 0 0 0 0 0 1 3 6 7 6 7 9 9 8 7 5 3 2 1 1 1 0 0 0 0 0 0 0 0 0 0 0 0 0 0
0 0 0 0 0 0 0 0 0 0 0 0 0 0 1 2 2 2 2 2 4 6 7 8 10 12 11 9 8 5 4 3 3 3 2 1 1 1 0 0 0 0 0 0 0 0 0 0 0
0 0 0 0 0 0 0 0 0 0 0 0 0 0 1 2 2 3 5 5 5 5 5 6 9 10 9 9 8 6 6 5 4 4 3 1 1 1 0 0 0 0 0 0 0 0 0 0 0
0 0 0 0 0 0 0 0 0 0 0 0 0 0 1 1 1 3 5 6 4 4 3 3 4 5 5 6 5 5 5 4 3 4 3 2 1 1 0 0 0 0 0 0 0 0 0 0 0
0 0 0 0 0 0 0 0 0 0 0 0 0 0 0 0 0 1 3 3 2 1 1 1 1 1 1 2 2 2 2 1 1 2 2 1 0 0 0 0 0 0 0 0 0 0 0 0 0
0 0 0 0 0 0 0 0 0 0 0 0 0 0 0 0 0 0 1 1 0 0 0 0 0 0 0 0 0 0 0 0 0 1 1 1 0 0 0 0 0 0 0 0 0 0 0 0 0
0 0 0 0 0 0 0 0 0 0 0 0 0 0 0 0 0 0 0 0 0 0 0 0 0 0 0 0 0 0 0 0 0 0 0 0 0 0 0 0 0 0 0 0 0 0 0 0 0
0 0 0 0 0 0 0 0 0 0 0 0 0 0 0 0 0 0 0 0 0 0 0 0 0 0 0 0 0 0 0 0 0 0 0 0 0 0 0 0 0 0 0 0 0 0 0 0 0
0 0 0 0 0 0 0 0 0 0 0 0 0 0 0 0 0 0 0 0 0 0 0 0 0 0 0 0 0 0 0 0 0 0 0 0 0 0 0 0 0 0 0 0 0 0 0 0 0
0 0 0 0 0 0 0 0 0 0 0 0 0 0 0 0 0 0 0 0 0 0 0 0 0 0 0 0 0 0 0 0 0 0 0 0 0 0 0 0 0 0 0 0 0 0 0 0 0
0 0 0 0 0 0 0 0 0 0 0 0 0 0 0 0 0 0 0 0 0 0 0 0 0 0 0 0 0 0 0 0 0 0 0 0 0 0 0 0 0 0 0 0 0 0 0 0 0
0 0 0 0 0 0 0 0 0 0 0 0 0 0 0 0 0 0 0 0 0 0 0 0 0 0 0 0 0 0 0 0 0 0 0 0 0 0 0 0 0 0 0 0 0 0 0 0 0
0 0 0 0 0 0 0 0 0 0 0 0 0 0 0 0 0 0 0 0 0 0 0 0 0 0 0 0 0 0 0 0 0 0 0 0 0 0 0 0 0 0 0 0 0 0 0 0 0
0 0 0 0 0 0 0 0 0 0 0 0 0 0 0 0 0 0 0 0 0 0 0 0 0 0 0 0 0 0 0 0 0 0 0 0 0 0 0 0 0 0 0 0 0 0 0 0 0
0 0 0 0 0 0 0 0 0 0 0 0 0 0 0 0 0 0 0 0 0 0 0 0 0 0 0 0 0 0 0 0 0 0 0 0 0 0 0 0 0 0 0 0 0 0 0 0 0
0 0 0 0 0 0 0 0 0 0 0 0 0 0 0 0 0 0 0 0 0 0 0 0 0 0 0 0 0 0 0 0 0 0 0 0 0 0 0 0 0 0 0 0 0 0 0 0 0
0 0 0 0 0 0 0 0 0 0 0 0 0 0 0 0 0 0 0 0 0 0 0 0 0 0 0 0 0 0 0 0 0 0 0 0 0 0 0 0 0 0 0 0 0 0 0 0 0
0 0 0 0 0 0 0 0 0 0 0 0 0 0 0 0 0 0 0 0 0 0 0 0 0 0 0 0 0 0 0 0 0 0 0 0 0 0 0 0 0 0 0 0 0 0 0 0 0
0 0 0 0 0 0 0 0 0 0 0 0 0 0 0 0 0 0 0 0 0 0 0 0 0 0 0 0 0 0 0 0 0 0 0 0 0 0 0 0 0 0 0 0 0 0 0 0 0
0 0 0 0 0 0 0 0 0 0 0 0 0 0 0 0 0 0 0 0 0 0 0 0 0 0 0 0 0 0 0 0 0 0 0 0 0 0 0 0 0 0 0 0 0 0 0 0 0
0 0 0 0 0 0 0 0 0 0 0 0 0 0 0 0 0 0 0 0 0 0 0 0 0 0 0 0 0 0 0 0 0 0 0 0 0 0 0 0 0 0 0 0 0 0 0 0 0
0 0 0 0 0 0 0 0 0 0 0 0 0 0 0 0 0 0 0 0 0 0 0 0 0 0 0 0 0 0 0 0 0 0 0 0 0 0 0 0 0 0 0 0 0 0 0 0 0
0 0 0 0 0 0 0 0 0 0 0 0 0 0 0 0 0 0 0 0 0 0 0 0 0 0 0 0 0 0 0 0 0 0 0 0 0 0 0 0 0 0 0 0 0 0 0 0 0
0 0 0 0 0 0 0 0 0 0 0 0 0 0 0 0 0 0 0 0 0 0 0 0 0 0 0 0 0 0 0 0 0 0 0 0 0 0 0 0 0 0 0 0 0 0 0 0 0
0 0 0 0 0 0 0 0 0 0 0 0 0 0 0 0 0 0 0 0 0 0 0 0 0 0 0 0 0 0 0 0 0 0 0 0 0 0 0 0 0 0 0 0 0 0 0 0 0
0 0 0 0 0 0 0 0 0 0 0 0 0 0 0 0 0 0 0 0 0 0 0 0 0 0 0 0 0 0 0 0 0 0 0 0 0 0 0 0 0 0 0 0 0 0 0 0 0
0 0 0 0 0 0 0 0 0 0 0 0 0 0 0 0 0 0 0 0 0 0 0 0 0 0 0 0 0 0 0 0 0 0 0 0 0 0 0 0 0 0 0 0 0 0 0 0 0
0 0 0 0 0 0 0 0 0 0 0 0 0 0 0 0 0 0 0 0 0 0 0 0 0 0 0 0 0 0 0 0 0 0 0 0 0 0 0 0 0 0 0 0 0 0 0 0 0
Wind_Speed
9 9 6 2 2 4 6 5 3 2 3 6 6 5 6 6 5 7 3 5 6 7 8 7 8 9 9 10 10 10 10 10 10 10 10 10 10 10 10 10 10 9 10 9 9 9 9 9 9
8 7 3 2 3 5 5 5 2 2 4 4 4 4 5 7 7 7 4 4 6 7 7 7 8 9 9 10 10 10 10 10 10 10 10 10 10 10 9 9 9 9 9 9 9 9 9 9 8
8 6 3 3 4 5 3 1 4 5 4 3 3 4 5 5 6 4 4 3 6 7 7 8 9 10 10 10 10 10 10 10 10 10 10 10 10 9 9 9 8 8 8 8 8 8 8 8 7
3 2 3 4 7 6 3 2 5 4 3 2 3 4 5 6 4 4 4 4 7 7 8 8 10 11 11 11 11 10 10 10 10 10 9 9 9 9 9 9 8 8 8 8 8 8 8 7 6
2 2 4 6 8 6 1 2 3 1 0 1 2 3 5 5 7 6 4 5 7 7 8 8 10 11 11 11 10 10 10 10 10 9 9 9 9 9 9 8 8 8 7 7 7 7 7 6 6
2 2 4 7 7 5 2 1 1 0 0 1 2 3 5 5 5 4 5 5 7 7 8 8 10 11 10 10 10 10 10 10 9 9 9 8 8 8 8 8 8 7 6 6 6 6 6 6 5
2 2 5 7 6 4 1 2 1 1 1 2 2 3 5 5 4 4 5 6 7 7 7 6 6 7 9 10 10 10 10 10 9 9 9 8 8 7 7 7 7 7 6 6 5 5 5 5 5
2 2 5 6 6 3 2 3 3 3 3 4 4 2 4 4 4 5 6 6 7 6 6 6 5 5 5 6 9 9 9 9 8 8 7 6 7 7 7 6 6 6 5 5 5 4 4 4 4
2 3 5 4 4 0 3 2 3 2 2 3 4 4 6 7 6 6 5 5 5 6 5 5 5 4 4 4 6 6 7 7 6 5 5 4 2 3 4 4 5 4 4 4 3 3 3 3 2
2 3 4 3 3 2 2 2 1 1 1 1 3 7 7 6 5 5 5 5 4 4 4 4 4 4 4 4 3 2 3 3 3 3 3 2 2 3 3 4 3 3 3 3 2 2 2 2 1
3 4 3 2 4 3 1 1 1 1 1 1 2 5 5 5 4 4 4 4 4 4 4 4 4 4 4 2 2 2 2 2 3 3 3 2 2 2 2 1 1 1 1 1 2 2 1 1 1
4 4 3 2 3 2 2 0 1 2 1 2 2 4 4 3 3 3 3 4 4 4 4 4 4 3 3 2 2 2 2 2 2 2 3 2 2 2 2 1 1 1 1 1 1 1 1 1 1
6 5 3 1 2 2 2 2 2 1 1 2 3 3 3 2 2 2 3 4 4 4 3 3 3 3 3 2 2 2 2 2 2 2 2 3 2 2 2 1 2 2 2 2 2 1 1 2 2
2 3 3 2 2 2 2 3 3 3 2 3 3 2 3 2 2 2 3 3 3 4 3 3 3 3 3 2 2 2 2 2 2 2 2 3 2 2 2 2 2 2 2 2 2 2 2 1 2
2 3 5 5 5 3 2 5 6 4 4 4 4 3 3 3 3 3 3 3 4 4 4 3 3 3 3 3 2 2 2 2 2 2 2 3 3 2 2 1 2 2 2 3 2 2 2 2 2
4 4 5 5 5 4 4 6 4 4 5 5 4 4 3 3 3 3 3 3 3 4 4 3 3 3 3 2 2 1 1 2 2 1 2 2 2 2 2 2 2 2 2 2 2 2 2 2 2
5 5 6 4 5 4 5 5 3 4 4 4 4 4 3 3 2 3 2 3 3 4 4 4 3 3 2 2 2 1 1 2 1 1 1 2 2 2 2 1 2 2 2 2 2 2 1 2 2
4 5 5 4 3 2 5 6 4 4 5 4 4 3 3 4 3 3 2 2 3 4 4 4 3 3 2 2 1 1 2 1 1 1 1 1 1 2 2 1 2 2 2 2 2 2 2 2 2
4 5 5 2 1 2 6 8 6 5 5 5 4 4 4 4 4 4 3 3 3 3 4 3 3 2 2 1 1 1 1 0 1 0 0 1 1 1 1 1 2 2 1 2 2 2 2 2 2
5 5 5 2 1 3 6 8 7 6 6 5 4 4 4 3 4 4 4 4 3 3 3 3 2 2 2 1 1 1 1 1 1 0 0 0 0 1 1 1 1 2 1 2 2 2 2 2 1
4 3 3 3 4 5 5 7 7 5 5 4 3 2 3 3 4 4 4 3 3 3 3 2 2 2 1 1 1 1 1 0 0 0 0 1 1 1 1 1 1 2 1 1 2 2 2 2 2
3 2 3 3 3 3 2 4 3 4 4 5 4 3 2 2 3 3 3 3 3 3 2 2 1 1 1 1 1 2 1 1 1 1 1 1 1 1 1 1 1 2 1 1 2 2 2 2 3
1 2 2 3 3 4 4 4 6 4 4 5 4 3 2 2 3 4 3 3 3 3 2 1 1 1 1 1 1 2 1 1 1 1 1 1 1 2 1 2 2 2 2 2 2 3 3 2 3
0 1 2 3 2 5 6 5 4 3 4 4 3 3 2 2 2 3 3 3 3 3 2 1 1 1 1 1 1 2 2 2 1 2 2 2 1 2 2 2 2 2 2 2 2 3 3 3 4
1 1 0 1 3 6 3 4 5 0 2 3 4 3 2 2 2 2 3 3 3 2 2 1 1 1 1 1 1 1 2 2 3 2 2 2 2 2 2 2 2 2 2 2 2 3 4 4 4
3 2 2 3 3 2 1 4 3 2 3 4 4 4 3 2 2 2 3 3 3 2 2 1 1 1 1 0 1 1 2 2 2 2 2 2 2 2 3 2 3 3 3 3 3 3 4 4 4
3 3 1 1 2 3 4 3 2 3 3 3 3 3 2 2 2 2 2 2 2 2 2 1 1 1 1 1 1 1 1 2 2 2 2 2 2 2 3 3 3 3 3 3 3 3 4 4 4
2 1 1 2 2 4 4 4 3 4 3 3 2 2 2 1 1 1 1 1 1 1 1 1 1 1 1 1 1 2 2 2 2 2 2 2 2 2 3 3 3 3 3 3 3 4 4 4 4
3 2 3 3 3 3 3 3 1 4 4 3 2 2 2 1 1 0 0 1 1 1 1 0 0 0 0 1 1 2 2 2 2 2 2 2 2 3 3 3 3 4 4 4 4 4 4 4 4
2 3 4 3 4 3 3 5 1 4 3 3 2 1 1 1 1 1 1 1 1 1 1 1 0 0 1 1 1 2 2 2 2 2 3 3 3 3 3 3 4 4 5 4 5 5 4 5 5
Wind_Direction
295 273 255 260 244 235 242 244 271 339 30 43 30 29 37 36 42 104 117 67 83 100 111 110 102 102 98 94 91 88 86 83 80 77 77 75 72 74 73 72 69 66 67 68 66 66 67 67 69
288 279 267 241 237 237 238 231 244 27 54 51 30 29 50 66 64 93 83 60 85 98 108 107 101 101 99 96 93 89 86 83 80 76 75 73 72 72 72 69 68 66 65 65 65 62 64 65 67
272 267 256 233 233 243 258 26 86 63 55 55 45 30 44 60 69 75 80 81 91 94 97 101 101 99 97 94 91 87 83 79 77 75 73 72 70 70 70 67 67 67 65 66 65 63 62 62 64
265 245 246 246 245 252 278 37 71 64 44 46 83 75 68 44 58 79 92 87 93 93 94 98 98 97 95 92 89 86 82 79 75 73 70 70 68 66 67 65 64 64 65 67 64 62 62 59 60
245 243 227 237 247 253 292 46 62 84 147 85 91 85 76 56 70 85 84 80 89 90 93 96 92 91 90 88 87 86 82 78 73 71 70 68 67 64 63 63 63 61 62 63 62 60 58 59 54
249 245 237 234 235 230 189 75 60 352 358 49 67 94 97 87 72 79 76 78 85 86 90 92 89 88 86 86 85 83 81 77 73 70 67 65 65 65 64 62 59 58 60 61 61 57 53 53 49
256 250 254 260 249 228 131 71 42 357 31 28 2 82 115 92 78 83 83 77 82 84 88 87 88 86 84 83 84 82 80 77 74 69 64 62 62 63 64 60 58 54 54 55 55 52 51 48 42
289 274 252 254 255 243 91 72 44 19 21 20 13 81 118 118 108 96 87 76 76 76 79 85 85 87 89 85 83 82 80 77 74 69 62 61 60 60 60 55 56 54 51 48 47 46 44 42 31
262 244 248 257 263 218 98 85 47 35 53 38 34 52 107 122 123 110 97 85 78 73 67 72 79 80 82 87 85 83 80 73 72 67 58 50 49 58 60 54 58 52 48 43 39 31 36 29 19
214 232 244 295 336 16 52 75 65 93 98 88 77 78 105 120 130 126 123 118 102 90 78 68 72 74 74 82 85 79 79 74 63 58 52 40 42 46 48 57 60 48 37 28 14 359 12 4 349
215 235 267 326 13 21 2 48 356 251 246 201 139 126 124 135 139 134 129 121 116 105 87 75 71 74 75 72 80 67 63 65 57 46 38 43 46 50 45 50 44 21 17 359 344 335 325 328 326
239 260 287 335 2 350 318 266 295 295 312 51 97 133 137 144 144 137 125 116 115 106 100 92 82 75 77 79 83 83 72 64 61 46 35 36 36 34 32 34 22 14 8 351 340 317 307 331 323
236 246 258 308 318 303 307 277 251 234 102 89 114 135 148 150 139 121 116 109 111 108 103 99 96 87 79 73 72 72 72 71 68 53 36 34 40 29 25 17 17 3 1 353 335 328 330 338 317
248 250 235 220 233 252 269 271 246 215 158 144 149 150 148 142 126 117 117 117 118 112 104 95 97 95 88 83 73 76 76 72 69 59 46 33 30 28 26 17 17 7 351 343 336 335 329 322 313
241 246 236 218 215 204 241 259 229 198 180 178 174 164 152 151 144 138 135 137 133 122 114 105 107 96 94 92 82 81 76 80 72 63 55 43 31 18 20 15 23 0 346 345 335 340 350 334 324
227 232 229 204 201 183 206 252 194 172 186 192 185 172 164 149 140 133 129 134 131 130 124 117 102 96 99 96 89 81 73 73 71 64 57 48 32 16 20 15 8 350 351 352 341 347 347 335 329
215 229 229 209 195 194 214 246 194 178 191 203 195 181 175 162 144 131 128 130 132 133 129 125 113 107 101 103 111 99 86 72 67 65 51 40 31 16 22 9 356 350 350 353 338 345 333 314 315
225 234 245 226 178 221 243 253 221 203 200 210 204 187 180 169 161 141 133 133 129 127 125 120 116 113 109 107 104 92 78 70 65 67 48 29 25 16 13 2 351 349 354 348 338 324 321 301 305
296 279 268 274 20 262 254 259 247 219 217 216 207 192 183 168 147 143 147 129 118 111 111 121 125 123 116 117 121 118 119 79 61 71 54 33 18 4 11 352 342 344 341 324 323 314 321 310 314
277 281 286 314 2 287 271 268 258 229 226 221 216 201 182 167 152 146 145 138 131 126 117 119 124 130 125 123 130 154 171 188 189 166 82 21 341 340 344 342 323 325 328 333 329 327 316 308 320
255 271 294 301 314 262 267 277 237 208 210 207 207 189 170 161 153 152 150 140 132 128 128 129 140 141 131 125 124 118 65 30 46 308 266 248 245 282 314 294 298 302 301 289 294 304 296 289 298
255 305 309 306 300 277 224 281 251 193 198 192 189 181 178 138 137 141 145 137 133 125 115 115 123 132 147 151 171 178 182 208 237 242 256 260 239 244 272 278 287 289 284 276 280 287 274 264 271
288 325 288 283 278 285 245 244 265 189 201 192 162 145 130 118 141 146 148 142 127 119 124 131 133 148 151 184 197 204 208 221 224 242 245 259 253 235 241 250 257 268 270 267 272 280 276 261 256
227 312 264 249 256 259 229 215 265 203 193 166 142 134 134 134 127 135 133 124 119 116 121 128 143 171 184 230 223 220 213 220 225 244 250 258 257 251 242 254 252 255 261 262 267 270 273 269 268
166 113 286 226 220 241 204 207 246 220 114 140 146 137 130 134 127 127 133 136 133 131 138 151 162 205 223 248 261 241 235 221 222 233 234 247 252 260 254 261 261 265 264 266 269 268 267 266 266
203 196 186 225 250 285 212 226 242 142 103 98 115 126 126 126 131 134 143 144 145 147 156 167 181 229 243 270 298 279 258 231 229 237 238 242 245 249 257 261 263 265 265 269 269 272 268 265 262
201 213 239 263 279 274 242 221 192 137 123 112 110 119 129 122 114 115 119 131 141 154 168 186 190 233 258 287 292 279 287 264 248 250 251 247 250 256 256 256 259 262 264 265 263 263 268 265 264
269 189 164 191 228 259 253 223 213 173 184 170 152 144 144 115 97 87 99 113 120 137 148 156 167 211 253 283 289 303 294 291 266 256 258 258 259 262 260 263 262 262 265 265 264 266 263 263 265
192 197 214 223 237 231 264 259 175 158 161 164 157 151 144 154 162 149 77 95 102 105 117 126 165 211 267 286 300 303 298 300 284 263 256 258 258 257 258 259 260 263 265 265 264 264 269 269 272
232 213 192 194 242 230 254 267 63 99 108 116 114 99 121 161 181 161 143 104 120 154 171 191 225 264 286 303 301 293 293 295 290 276 272 267 267 263 258 257 259 265 270 269 264 263 266 265 268